STARLINK-3300 (50841 NORAD) Tracking and Keplerian Element Data

This shows tracking and keplerian element data for the satellite.

Feedback or suggestion? Click here.




ElementValue
Catalog50841
NameSTARLINK-3300
Epoch Orbit2185
Epoch Day140.58334491
Epoch Year2022
RAAN295.0553
Inclination53.2156
Eccentricity0.0002194
Argument of Perigee37.775
Mean Anonmoly33.717
Mean Motion15.08849039
Decay Rate-0.00023172
L11 50841U 22001AQ 22140.58334491 -.00023172 00000+0 -14421-2 0 9999
L22 50841 53.2156 295.0553 0002194 37.7750 33.7170 15.08849039 21850

Live tracking and technical data element details for STARLINK-3300 (NORAD 50841). STARLINK-3300 can be tracked NOW for your location showing map with azimuth and elevation plus other details from your city location.

Track the satellite on the map from your city or location and see movement details for azimuth, elevation, latitude, longitude, range, height, and movement on the map or in text.







IsCatalogInMostPopularTable: catalog: 50841, numindb: 22
Update: records affected: 1



GetName: 50841 STARLINK-3300

Hit Count: updated at: Mon, 23 May 2022 21:43:01 GMT